Regional Weather Roundup
Issued by NWS Grand Forks, ND

Home | Current Version | Previous Version | Graphics & Text | Print | Product List | Glossary On
Versions: 1 2 3 4 5 6 7 8 9 10 11 12 13 14 15 16 17 18 19 20 21 22 23 24 25 26 27 28 29 30 31 32 33 34 35 36 37 38 39 40 41 42 43 44 45 46 47 48 49 50
000
ASUS43 KFGF 011931
RWRFGF
PRAIRIE TO PINES  WEATHER ROUNDUP
NATIONAL WEATHER SERVICE EASTERN NORTH DAKOTA/GRAND FORKS ND
100 PM CST SUN MAR 01 2015

 **SATELLITE DATA USED TO AUGMENT SKY COVER AT AUTOMATED STATIONS**
 *****  WEATHER ACROSS EASTERN NORTH DAKOTA  *****

CITY           SKY/WX    TMP DP  RH WIND       PRES   REMARKS
GRAND FORKS    MOSUNNY   19   9  63 NW14      30.22R WCI   6
GRAND FRKS AFB MOSUNNY   19   9  63 NW13      30.22R WCI   7
GRAND FRKS NWS   N/A     21 N/A N/A NW7         N/A  WCI  13
DEVILS LAKE    SUNNY     16   7  67 NW15      30.22R WCI   1
FARGO          LGT SNOW  22  13  68 W15G23    30.22S WCI   9
WAHPETON ARPT  CLOUDY    23  14  68 W22       30.23F WCI   8
$$

 ***** WEATHER ACROSS CENTRAL AND WESTERN NORTH DAKOTA  *****

CITY           SKY/WX    TMP DP  RH WIND       PRES   REMARKS
BISMARCK       FLURRIES  24  12  60 NW20G25   30.29R WCI  10
MINOT          NOT AVBL
JAMESTOWN      NOT AVBL
MINOT AFB      MOSUNNY   17  12  82 NW18      30.26R WCI   1
GARRISON       NOT AVBL
WILLISTON      NOT AVBL
DICKINSON      CLOUDY    24  10  55 NW14G24   30.24R WCI  12
HETTINGER      NOT AVBL
$$

 *****  OTHER AIRPORT OBSERVATIONS IN OUR AREA  *****

CITY           SKY/WX    TMP DP  RH WIND       PRES   REMARKS
WALHALLA         N/A     18  10  73 NW14      30.23R WCI   4
GRAFTON AIRPOR NOT AVBL
VALLEY CITY AR FLURRIES  19  14  79 NW22G28   30.22R WCI   3
CANDO          FAIR      16   9  73 W9        30.23R WCI   4
CAVALIER APRT  FAIR      18  10  73 NW10G17   30.22R WCI   6
GWINNER        MOCLDY    27  16  63 W20G26    30.24S WCI  13
SHEYENNE NWR     N/A     23  11  60 NW15      29.95S WCI  10
ROLLA          FAIR      18   9  68 NW18      30.20R WCI   2
 ***** THE ABOVE OBSERVATIONS ARE NON NWS ARE NOT QUALITY
       CONTROLLED AND MAY MIS-REPORT RAIN FOR SNOW...
$$

  *****  WEATHER ACROSS NORTHERN MINNESOTA  *****

CITY           SKY/WX    TMP DP  RH WIND       PRES   REMARKS
FLAG ISLAND    CLOUDY    16   7  67 NW15      30.09R WCI   1
WARROAD        MOSUNNY   12   7  79 SW13G18   30.12F HAZE    WCI  -3
ROSEAU         LGT SNOW  16   9  73 W12       30.14S WCI   3
HALLOCK        PTSUNNY   16  10  79 NW10      30.20R WCI   3
THF RVR FALLS  PTSUNNY   12   7  79 W10       30.18S WCI  -1
BAUDETTE       NOT AVBL
WASKISH        MOSUNNY   16   9  73 SW13      30.13S WCI   2
CROOKSTON      LGT SNOW  18  12  79 NW13      30.22R WCI   4
STEPHEN NDAWN    N/A     16   9  73 NW12        N/A  WCI   3
GREENBUSH NDAW   N/A     16   9  73 MISG        N/A
$$
  *****  WEATHER ACROSS CENTRAL AND WEST MINNESOTA  *****

CITY           SKY/WX    TMP DP  RH WIND       PRES   REMARKS
FOSSTON        LGT SNOW  18   7  62 SW10      30.18R WCI   6
BEMIDJI        MOSUNNY   16   7  67 W13       30.13S WCI   3
PARK RAPIDS    NOT AVBL
ELBOW LAKE     FAIR      22  12  65 W10G22    30.21F WCI  12
WADENA         FLURRIES  19   9  63 W12G21    30.17F WCI   7
DETROIT LAKES  MIX PCPN  19  12  73 W10       30.19S WCI   8
MOORHEAD       LGT SNOW  21  18  86 W13       30.23S WCI   9
FERGUS FALLS   PTSUNNY   21  10  63 W15       30.24F WCI   8
MORRIS MN      MOSUNNY   27  12  54 NW17      30.22S WCI  14
STAPLES        PTSUNNY   19   9  63 W13       30.17F WCI   7
$$
  *****  WEATHER ELSEWHERE ACROSS MINNESOTA  *****

CITY           SKY/WX    TMP DP  RH WIND       PRES   REMARKS
DULUTH         NOT AVBL
INTRNTL FALLS  NOT AVBL
ELY            SUNNY     21   1  42 W15       30.03S WCI   8
CLOQUET        SUNNY     21   3  45 W13G23    30.10F WCI   9
WHEATON        NOT AVBL
BRAINERD       NOT AVBL
HIBBING        NOT AVBL
ALEXANDRIA     NOT AVBL
SAINT CLOUD    NOT AVBL
MINNEAPOLIS    NOT AVBL
$$

  *****  WEATHER ACROSS SOUTH DAKOTA  *****

CITY           SKY/WX    TMP DP  RH WIND       PRES   REMARKS
SIOUX FALLS    NOT AVBL
BROOKINGS      NOT AVBL
WATERTOWN      NOT AVBL
HURON          NOT AVBL
SISSETON       NOT AVBL
ABERDEEN       PTSUNNY   28  17  63 NW18G24   30.28R WCI  15
MITCHELL       NOT AVBL
PIERRE         NOT AVBL
MOBRIDGE       NOT AVBL
RAPID CITY     NOT AVBL
$$

  *****  SOME WEATHER IN NEARBY STATES *****

CITY           SKY/WX    TMP DP  RH WIND       PRES   REMARKS
GLASGOW MT     NOT AVBL
GREAT FALLS MT NOT AVBL
CHEYENNE WY    NOT AVBL
SCOTTSBLUFF NE NOT AVBL
OMAHA NE       NOT AVBL
DES MOINES IA  NOT AVBL
DAVENPORT IA   MOSUNNY   23  16  74 W9        30.35F WCI  13
CHICAGO IL     NOT AVBL
EAU CLAIRE WI  PTSUNNY   22   9  57 W15       30.20F WCI   9
LA CROSSE WI   PTSUNNY   26  14  60 W15       30.26F WCI  14
$$

  *****  SOME NATIONAL WEATHER *****

CITY           SKY/WX    TMP DP  RH WIND       PRES   REMARKS
LA GUARDIA NY  NOT AVBL
RALEIGH NC     LGT RAIN  34  30  86 CALM      30.44F FOG
ATLANTA GA     NOT AVBL
NEW ORLEANS LA NOT AVBL
OKLAHOMA CITY  NOT AVBL
ALBUQUERQUE NM NOT AVBL
SALT LAKE CITY NOT AVBL
LOS ANGELES CA NOT AVBL
BOISE ID       NOT AVBL
SEATTLE WA     NOT AVBL
$$

*** WEATHER ACROSS MANITOBA...SASKATCHEWAN AND ONTARIO ***
                ***ONTARIO***

CITY           SKY/WX    TMP DP  RH WIND       PRES   REMARKS
GERALDTON      FLURRIES  19   7  58 W15G23    29.89F WCI   5
THUNDER BAY    PTSUNNY   25   9  50 W10G20    30.00F WCI  15
SIOUX LOOKOUT  PTSUNNY   16   1  53 W10G17    29.97F WCI   3
TORONTO        CLOUDY    25  14  63 SW7       30.25F WCI  17
BIG TROUT LK   SUNNY      5  -4  66 NW15G21   29.86S WCI -13
PICKLE LAKE    FLURRIES  16   5  62 W12G22    29.85S WCI   3
DRYDEN         PTSUNNY   16   5  62 W15G21    29.98F WCI   1
KENORA         CLOUDY    16   7  67 NW9       30.05S WCI   4
$$
                *** MANITOBA***

CITY           SKY/WX    TMP DP  RH WIND       PRES   REMARKS
BRANDON        MOSUNNY   12   5  73 W14       30.22R WCI  -3
DAUPHIN        PTSUNNY   19  10  68 W17G23    30.17S WCI   4
ISLAND LAKE    MOSUNNY    7  -6  56 W14G21    29.97F WCI -10
PILOT MOUND      N/A     12   7  79 W8          N/A  WCI   1
THE PAS        SUNNY     12  -2  52 NW16      30.16S WCI  -4
THOMPSON       MOSUNNY    0 -15  50 NW15G21   30.05R WCI -20
WINNIPEG       SUNNY     14   7  73 W10       30.20R WCI   1
LYNN LAKE      SUNNY      0 -13  55 NW13G18   30.07S WCI -18
CHURCHILL      CRYSTALS -17 -26  63 NW26G33   29.96R WCI -47
GILLAM         SUNNY     -6 -18  54 NW16      29.99R WCI -28
$$
                ***SASKATCHEWAN***

CITY           SKY/WX    TMP DP  RH WIND       PRES   REMARKS
ESTEVAN        MOSUNNY   16  10  79 W15       30.27S WCI   1
KINDERSLEY     SUNNY     18  14  86 S9        30.20F WCI   6
LLOYDMINSTER   MOSUNNY   16  12  86 SW9       30.15F WCI   4
PRINCE ALBERT  SUNNY     16   3  57 NW12      30.23S WCI   3
REGINA         PTSUNNY   12  10  92 W10       30.27R WCI  -1
YORKTON        SUNNY     16   9  73 W14       30.20R WCI   1
N. BATTLEFORD  SUNNY     14  12  92 SE3       30.24S
LA RONGE       SUNNY     12   0  57 SW7       30.21S WCI   2
SASKATOON      MOSUNNY   16  10  79 W5        30.26S WCI   9
SWIFT CURRENT  SUNNY     18  16  93 SW10      30.22F WCI   6
$$
NOTE: THESE ARE AUTOMATED STATIONS WITH LIMITED QUALITY CONTROL
      "FAIR" INDICATES FEW OR NO CLOUDS BELOW 12,000 FEET WITH NO
      SIGNIFICANT WEATHER AND/OR OBSTRUCTIONS TO VISIBILITY.
      SKY/WX - SKY CONDITION AND SIGNIFICANT WEATHER.
      TMP - AIR TEMPERATURE.    DP   - DEWPOINT TEMPERATURE.
      RH  - RELATIVE HUMIDITY.  PRES - PRESSURE.
      HX  - HEAT INDEX.         WCI  - WIND CHILL INDEX.
$


USA.gov is the U.S. government's official web portal to all federal, state and local government web resources and services.